Rome, GA

2:52 AM EDT on April 21, 2018 (GMT -0400)
Russell

Weather History for KRMG - September, 2012

Change the Weather History Date:

Friday, September 28, 2012

  Actual Average Record
Temperature  
Mean Temperature 74 °F 68 °F  
Max Temperature 87 °F 80 °F 92 °F (2017)
Min Temperature 60 °F 56 °F 45 °F (2000)
Degree Days  
Heating Degree Days 0 1  
Month to date heating degree days 9  
Since 1 July heating degree days 9  
Cooling Degree Days 8 4  
Month to date cooling degree days 216  
Year to date cooling degree days 1582  
Growing Degree Days 24 (Base 50)    
Moisture  
Dew Point 63 °F    
Average Humidity 78    
Maximum Humidity 100    
Minimum Humidity 43    
Precipitation  
Precipitation 0.00 in 0.15 in 0.38 in (2005)
Month to date precipitation 3.13  
Year to date precipitation 38.55  
Sea Level Pressure  
Sea Level Pressure 30.06 in    
Wind  
Wind Speed 1 mph (WNW)    
Max Wind Speed 7 mph    
Max Gust Speed -    
Visibility 9 miles    
Events      
T = Trace of Precipitation, MM = Missing Value Source: NWS Daily Summary

Daily Weather History Graph

Daily Weather History Graph

Search for Another Location

Airport or City:

Astronomy

Sep. 28, 2012 Rise Set
Actual Time 7:33 AM EDT 7:28 PM EDT
Civil Twilight 7:08 AM EDT 7:53 PM EDT
Nautical Twilight 6:39 AM EDT 8:22 PM EDT
Astronomical Twilight 6:09 AM EDT 8:51 PM EDT
Moon 6:29 PM EDT (9/28) 6:05 AM EDT (9/28)
Length of Visible Light 12h 44m
Length of Day
11h 54m
Waxing Gibbous, 98% of the Moon is Illuminated
Sep 28
Waxing Gibbous
Sep 29
Full
Oct 8
Last Quarter
Oct 15
New
Oct 21
First Quarter

Hourly Weather History & Observations

Time (EDT) Temp. Heat Index Dew Point Humidity Pressure Visibility Wind Dir Wind Speed Gust Speed Precip Events Conditions
12:53 AM 63.0 °F - 62.1 °F 97% 30.11 in 9.0 mi Calm Calm - N/A   Clear
1:53 AM 62.1 °F - 62.1 °F 100% 30.10 in 9.0 mi Calm Calm - N/A   Clear
2:53 AM 62.1 °F - 61.0 °F 96% 30.09 in 9.0 mi Calm Calm - N/A   Clear
3:53 AM 60.1 °F - 60.1 °F 100% 30.09 in 4.0 mi Calm Calm - N/A   Clear
4:53 AM 60.1 °F - 60.1 °F 100% 30.08 in 9.0 mi Calm Calm - N/A   Partly Cloudy
5:53 AM 60.1 °F - 60.1 °F 100% 30.08 in 8.0 mi Calm Calm - N/A   Clear
6:53 AM 60.1 °F - 60.1 °F 100% 30.09 in 7.0 mi Calm Calm - N/A   Clear
7:53 AM 60.1 °F - 60.1 °F 100% 30.10 in 6.0 mi Calm Calm - N/A   Partly Cloudy
8:53 AM 62.1 °F - 61.0 °F 96% 30.12 in 7.0 mi Calm Calm - N/A   Clear
9:53 AM 68.0 °F - 64.0 °F 87% 30.12 in 9.0 mi Calm Calm - N/A   Clear
10:53 AM 73.0 °F - 64.0 °F 73% 30.12 in 10.0 mi Calm Calm - N/A   Clear
11:53 AM 77.0 °F - 64.9 °F 66% 30.11 in 10.0 mi Calm Calm - N/A   Clear
12:53 PM 80.1 °F 81.9 °F 64.9 °F 60% 30.09 in 10.0 mi Calm Calm - N/A   Clear
1:53 PM 82.9 °F 85.0 °F 66.0 °F 56% 30.07 in 10.0 mi West 3.5 mph - N/A   Clear
2:53 PM 86.0 °F 87.3 °F 64.0 °F 48% 30.04 in 10.0 mi West 5.8 mph - N/A   Scattered Clouds
3:53 PM 87.1 °F 87.5 °F 62.1 °F 43% 30.01 in 10.0 mi WNW 3.5 mph - N/A   Clear
4:53 PM 84.9 °F 86.1 °F 64.0 °F 49% 29.99 in 10.0 mi NNW 6.9 mph - N/A   Scattered Clouds
5:53 PM 84.9 °F 85.4 °F 62.1 °F 46% 29.98 in 10.0 mi West 4.6 mph - N/A   Partly Cloudy
6:53 PM 80.1 °F 81.7 °F 64.0 °F 58% 29.98 in 10.0 mi Calm Calm - N/A   Clear
7:53 PM 73.0 °F - 64.9 °F 76% 29.99 in 10.0 mi Calm Calm - N/A   Clear
8:53 PM 71.1 °F - 66.0 °F 84% 30.00 in 10.0 mi Calm Calm - N/A   Clear
9:53 PM 69.1 °F - 66.0 °F 90% 30.00 in 10.0 mi Calm Calm - N/A   Clear
10:53 PM 68.0 °F - 66.0 °F 93% 30.01 in 10.0 mi Calm Calm - N/A   Clear
11:53 PM 68.0 °F - 66.0 °F 93% 30.01 in 10.0 mi Calm Calm - N/A   Clear